[[{"header":{"parameterUnit":"m.s-1","parameterCategory":2,"la1":30.2991,"la2":30.254,"lo1":-89.0895,"lo2":-89.0444,"dy":0.0017,"dx":0.0017,"nx":28,"ny":28,"refTime":"2025-07-03T09:00:00:Z","depth":"0","parameterNumber":2,"parameterNumberName":"U-component_of_CURRENTS"},"data":[0,0,0,0,0,0,0,0,0,0,0,0,0,0,0,0,0,0,0,0,0,0,0,0,0,0,0,0,0,0,0,0,0,0,0,0,0,0,0,0,0,0,0,0,0,0,0,0,0,0,0,0,0,0,0,0,0,0,0.0892,0.0892,0,0.0902,0.0902,0.0902,0.0898,0.0898,0.0898,0.0898,0.0899,0.0899,0.0899,0,0,0,0,0,0,0,0,0,0,0,0,0,0.0872,0.0872,0.0892,0.0892,0.0893,0.0902,0.0902,0.0902,0.0898,0.0898,0.0898,0.0898,0.0899,0.0899,0.0899,0,0,0,0,0,0,0,0,0,0,0,0,0,0.088,0.0872,0.0892,0.0893,0.0893,0.0902,0.0902,0.0902,0.0899,0.0898,0.0898,0.0898,0.0899,0.0899,0.0899,0.0904,0,0,0.09,0.09,0,0,0,0,0,0,0,0,0.088,0.0881,0.0892,0.0893,0.0893,0.09,0.0895,0.0903,0.0899,0.0895,0.0898,0.0898,0.0899,0.09,0.09,0.0904,0.0904,0.09,0.09,0.09,0.09,0,0,0,0,0,0,0,0.0879,0.088,0.0895,0.0893,0.0893,0.0893,0.0894,0.0897,0.0897,0.0895,0.0896,0.0899,0.0899,0.09,0.09,0.0904,0.09,0.09,0.09,0.09,0.0958,0.0959,0,0,0,0,0,0,0.088,0.088,0.0895,0.0895,0.0887,0.0894,0.0895,0.0897,0.0897,0.0898,0.0899,0.0898,0.09,0.09,0.09,0.0948,0.09,0.09,0.09,0.0957,0.0958,0.096,0,0,0,0,0,0,0.088,0.0882,0.0894,0.0889,0.089,0.0895,0.0897,0.0897,0.09,0.09,0.09,0.0902,0.09,0.09,0.0919,0.0946,0.09,0.0901,0.0955,0.0957,0.0959,0.1016,0,0,0,0,0,0,0.0879,0.0881,0.0883,0.0889,0.0891,0.0907,0.0897,0.0898,0.0903,0.0903,0.0903,0.0902,0.09,0.0919,0.0919,0.0946,0.0901,0.0953,0.0956,0.0958,0.1012,0.102,0.1026,0,0,0,0,0,0.0878,0.0886,0.0883,0.0885,0.0893,0.0908,0.0909,0.091,0.0903,0.0911,0.0917,0.0903,0.0936,0.092,0.092,0.0947,0.0952,0.0955,0.0958,0.1009,0.1018,0.1026,0,0,0,0,0,0,0.0882,0.0887,0.0884,0.0893,0.0902,0.0908,0.0913,0.0913,0.0922,0.0921,0.0917,0.0919,0.0945,0.0939,0.0921,0.0973,0.0943,0.0946,0.0982,0.099,0.0997,0.0997,0.0901,0,0,0,0,0,0.0883,0.0887,0.0894,0.0902,0.0906,0.0908,0.0913,0.0916,0.0924,0.0928,0.0932,0.0941,0.0959,0.0967,0.0976,0.1001,0.1035,0.1021,0.1027,0.1033,0.1035,0.1114,0.1129,0.097,0.097,0.097,0,0,0.0888,0.0889,0.0893,0.0903,0.0906,0.0919,0.0911,0.0922,0.0937,0.0927,0.095,0.0961,0.097,0.1003,0.1015,0.1002,0.1104,0.1037,0.1042,0.1041,0.1119,0.1135,0.1149,0.0973,0.0972,0.0972,0,0,0.0905,0.0899,0.0911,0.0917,0.0925,0.0929,0.0933,0.0945,0.0953,0.0977,0.0981,0.1013,0.1026,0.1052,0.1063,0.1112,0.1135,0.1114,0.1153,0.1231,0.1245,0.1257,0.1353,0.1373,0.1121,0.1121,0.1121,0,0.0912,0.0926,0.0919,0.0931,0.0937,0.0934,0.0951,0.0961,0.098,0.1003,0.099,0.1055,0.1053,0.1117,0.113,0.1129,0.1183,0.112,0.1241,0.1254,0.1266,0.1361,0.1382,0.1124,0.1124,0.1124,0.1123,0,0.0943,0.0948,0.0955,0.0966,0.0971,0.0987,0.0994,0.1014,0.1021,0.104,0.1101,0.1118,0.1162,0.117,0.1159,0.1247,0.1264,0.124,0.1221,0.1285,0.1381,0.1403,0.1129,0.1128,0.1127,0.1126,0,0,0.0992,0.0979,0.0983,0.0986,0.0991,0.1,0.1026,0.1063,0.1097,0.1126,0.1196,0.1221,0.1242,0.1256,0.1267,0.1325,0.1454,0.1316,0.1319,0.1414,0.1656,0.1792,0.1828,0.1457,0.146,0.1463,0.1702,0,0.1026,0.1038,0.1027,0.1047,0.1059,0.1056,0.1079,0.1108,0.114,0.1209,0.1253,0.1315,0.1273,0.1313,0.1364,0.1434,0.1509,0.1393,0.1576,0.1582,0.1697,0.1857,0.1936,0.2167,0.1723,0.1727,0.1729,0,0.1091,0.1077,0.1095,0.1086,0.1091,0.1098,0.1142,0.1165,0.1246,0.1279,0.1353,0.1396,0.1498,0.1448,0.1612,0.1545,0.1601,0.1649,0.1659,0.1776,0.1759,0.2024,0.2223,0.212,0.1763,0.176,0.1758,0,0.1161,0.1143,0.1151,0.1149,0.1136,0.1145,0.1144,0.1195,0.1248,0.1344,0.1429,0.1517,0.1614,0.1685,0.1786,0.171,0.1986,0.1893,0.2075,0.2085,0.2185,0.2199,0.2307,0.2016,0.2015,0.2015,0.2014,0,0.1237,0.126,0.1173,0.1187,0.1201,0.117,0.1223,0.1246,0.1324,0.1436,0.1475,0.1616,0.1678,0.1842,0.1874,0.2095,0.207,0.2137,0.2177,0.2211,0.2225,0.2161,0.205,0.2024,0.2022,0.202,0.2018,0,0.1382,0.1319,0.1335,0.1271,0.1248,0.127,0.1275,0.1343,0.1383,0.1548,0.1601,0.1748,0.197,0.2073,0.2236,0.2261,0.2376,0.248,0.2536,0.2579,0.2622,0.2512,0.2528,0.2474,0.2723,0.2728,0.2732,0,0.148,0.1485,0.1408,0.1407,0.1387,0.1381,0.1409,0.1397,0.1479,0.1652,0.1774,0.2009,0.221,0.2529,0.2652,0.2828,0.2616,0.2959,0.2813,0.2702,0.2606,0.2354,0.2284,0.2973,0.2979,0.2984,0.2988,0,0.1649,0.1606,0.1591,0.1569,0.1567,0.1572,0.1592,0.1649,0.1693,0.1818,0.202,0.2181,0.2543,0.2776,0.3024,0.3122,0.2842,0.3065,0.2936,0.2831,0.2578,0.2521,0.2726,0.3031,0.3027,0.3024,0.3021,0.302,0.1765,0.1784,0.1722,0.1713,0.1724,0.1738,0.1742,0.1798,0.1889,0.2036,0.2182,0.2408,0.2756,0.3136,0.3237,0.3412,0.3171,0.3322,0.321,0.2972,0.288,0.3208,0.3555,0.3554,0.3552,0.3552,0.3551,0,0.1832,0.1828,0.1863,0.1809,0.1841,0.181,0.1853,0.1858,0.1941,0.2129,0.2272,0.266,0.2988,0.325,0.3543,0.3501,0.332,0.3421,0.305,0.2982,0.3317,0.3291,0.3616,0.3616,0.3616,0.3616,0.3616,0.3616,0.1848,0.1861,0.1859,0.1878,0.1875,0.1865,0.1869,0.1907,0.1998,0.2195,0.2383,0.2565,0.2904,0.3265,0.3419,0.3421,0.3088,0.3067,0.2882,0.3089,0.3066,0.3044,0.2994,0.3251,0.325,0.2508,0.2502,0.2498]},{"header":{"parameterUnit":"m.s-1","parameterCategory":2,"la1":30.2991,"la2":30.254,"lo1":-89.0895,"lo2":-89.0444,"dy":0.0017,"dx":0.0017,"nx":28,"ny":28,"refTime":"2025-07-03T09:00:00:Z","depth":"0","parameterNumber":3,"parameterNumberName":"V-component_of_CURRENTS"},"data":[0,0,0,0,0,0,0,0,0,0,0,0,0,0,0,0,0,0,0,0,0,0,0,0,0,0,0,0,0,0,0,0,0,0,0,0,0,0,0,0,0,0,0,0,0,0,0,0,0,0,0,0,0,0,0,0,0,0,-0.0283,-0.0283,0,-0.0338,-0.0338,-0.0339,-0.0403,-0.0405,-0.0406,-0.0407,-0.0489,-0.049,-0.0491,0,0,0,0,0,0,0,0,0,0,0,0,0,-0.0213,-0.0214,-0.0283,-0.0283,-0.0284,-0.0338,-0.0338,-0.0339,-0.0403,-0.0405,-0.0406,-0.0407,-0.0488,-0.049,-0.0491,0,0,0,0,0,0,0,0,0,0,0,0,0,-0.0252,-0.0214,-0.0283,-0.0324,-0.0328,-0.0337,-0.0338,-0.0339,-0.0403,-0.0405,-0.0406,-0.0408,-0.0488,-0.0489,-0.0491,-0.0469,0,0,-0.0497,-0.0497,0,0,0,0,0,0,0,0,-0.025,-0.0254,-0.0317,-0.0321,-0.0326,-0.0366,-0.0344,-0.0384,-0.0403,-0.0373,-0.0407,-0.0409,-0.045,-0.0455,-0.0459,-0.0473,-0.0477,-0.0497,-0.0498,-0.0499,-0.0499,0,0,0,0,0,0,0,-0.0247,-0.0252,-0.0303,-0.0317,-0.0323,-0.0332,-0.034,-0.0351,-0.0401,-0.0376,-0.0381,-0.0388,-0.0452,-0.0458,-0.0462,-0.0478,-0.0497,-0.0498,-0.0499,-0.05,-0.0509,-0.0508,0,0,0,0,0,0,-0.0241,-0.025,-0.0302,-0.0305,-0.0292,-0.0332,-0.034,-0.0351,-0.0401,-0.041,-0.0387,-0.0391,-0.0454,-0.046,-0.0465,-0.0453,-0.0498,-0.05,-0.0501,-0.051,-0.0509,-0.0508,0,0,0,0,0,0,-0.024,-0.0246,-0.03,-0.0279,-0.0287,-0.0332,-0.0343,-0.0351,-0.0359,-0.0409,-0.0419,-0.0387,-0.0455,-0.0463,-0.0475,-0.0457,-0.0501,-0.0503,-0.0511,-0.0509,-0.0508,-0.0422,0,0,0,0,0,0,-0.0237,-0.0245,-0.024,-0.0279,-0.0288,-0.0297,-0.0342,-0.0351,-0.0361,-0.0367,-0.0412,-0.0422,-0.0457,-0.0472,-0.0476,-0.046,-0.0504,-0.0512,-0.051,-0.0509,-0.0426,-0.0418,-0.0412,0,0,0,0,0,-0.0235,-0.0223,-0.024,-0.0246,-0.0284,-0.0296,-0.03,-0.0337,-0.036,-0.0352,-0.0387,-0.042,-0.0466,-0.0472,-0.0478,-0.0461,-0.0512,-0.0511,-0.0509,-0.043,-0.042,-0.0412,0,0,0,0,0,0,-0.0178,-0.0229,-0.0249,-0.025,-0.0268,-0.0307,-0.0301,-0.0327,-0.0347,-0.0354,-0.0405,-0.0415,-0.0421,-0.0449,-0.0455,-0.0461,-0.0496,-0.0495,-0.0434,-0.0425,-0.0418,-0.0397,-0.0505,0,0,0,0,0,-0.0165,-0.0177,-0.0217,-0.0213,-0.0221,-0.0258,-0.0265,-0.0289,-0.0317,-0.0327,-0.0359,-0.0392,-0.0415,-0.0427,-0.045,-0.0445,-0.0464,-0.0441,-0.0433,-0.0427,-0.0414,-0.0432,-0.0425,-0.0502,-0.0502,-0.0502,0,0,-0.0138,-0.0169,-0.0173,-0.0202,-0.022,-0.0225,-0.0265,-0.0269,-0.027,-0.0331,-0.0333,-0.0364,-0.0408,-0.041,-0.0415,-0.0433,-0.0412,-0.0424,-0.0418,-0.0409,-0.0429,-0.0422,-0.0415,-0.0501,-0.0501,-0.0501,0,0,-0.0101,-0.012,-0.0124,-0.0139,-0.0166,-0.0186,-0.0185,-0.0217,-0.0226,-0.023,-0.0277,-0.0291,-0.0326,-0.0349,-0.0368,-0.033,-0.0373,-0.0345,-0.029,-0.0307,-0.0301,-0.0295,-0.0295,-0.0291,-0.0341,-0.0341,-0.0341,0,-0.0065,-0.0087,-0.0119,-0.0128,-0.0135,-0.0167,-0.0164,-0.0169,-0.0199,-0.019,-0.0221,-0.0254,-0.0294,-0.0293,-0.0291,-0.0311,-0.0328,-0.0319,-0.0296,-0.0292,-0.0288,-0.0289,-0.0285,-0.0337,-0.0337,-0.0338,-0.0338,0,-0.0043,-0.0056,-0.0052,-0.0082,-0.0085,-0.0083,-0.0103,-0.0093,-0.0108,-0.0116,-0.0109,-0.0156,-0.0176,-0.0194,-0.0236,-0.0224,-0.0246,-0.0284,-0.0315,-0.0274,-0.0279,-0.0276,-0.0331,-0.0332,-0.0333,-0.0335,0,0,0.0032,-0.0029,-0.0027,-0.0038,-0.0064,-0.0062,-0.0043,-0.0033,-0.0001,-0.0025,0.0013,-0.0037,-0.0055,-0.0077,-0.0124,-0.0143,-0.0134,-0.0201,-0.0204,-0.0193,-0.0161,-0.0155,-0.0152,-0.0175,-0.0175,-0.0174,-0.017,0,0.0061,0.0041,0.0008,0.0016,0.0011,-0.0005,0.0023,0.0035,0.0046,0.0084,0.0055,0.007,-0.0013,-0.0012,-0.0046,-0.0107,-0.0126,-0.013,-0.0208,-0.021,-0.0205,-0.0149,-0.009,-0.008,-0.0167,-0.0167,-0.0167,0,0.0099,0.0072,0.0068,0.0059,0.0061,0.0069,0.0116,0.0135,0.0182,0.0198,0.0206,0.0191,0.0176,0.0099,0.0017,0.0014,-0.0066,-0.012,-0.0122,-0.0144,-0.0199,-0.0139,-0.0072,-0.0189,-0.0163,-0.0164,-0.0164,0,0.0162,0.013,0.0124,0.0116,0.01,0.0118,0.013,0.0175,0.0227,0.028,0.034,0.0301,0.0307,0.0205,0.0088,0.0051,0.0003,-0.0062,-0.0126,-0.0127,-0.0104,-0.0103,-0.0152,-0.0117,-0.0117,-0.0117,-0.0117,0,0.0208,0.0213,0.015,0.0149,0.0181,0.0163,0.0233,0.0255,0.0327,0.0426,0.0401,0.047,0.0329,0.0289,0.015,0.0039,0.0049,-0.0093,-0.0119,-0.0071,-0.0067,-0.0192,-0.0304,-0.0117,-0.0117,-0.0117,-0.0117,0,0.0287,0.0238,0.0236,0.0206,0.0206,0.0235,0.0288,0.0361,0.0417,0.0549,0.0582,0.06,0.056,0.0428,0.0281,0.0139,-0.0045,-0.0029,0.005,0.0033,-0.0147,-0.0257,-0.0347,-0.0421,-0.0089,-0.0088,-0.0088,0,0.0323,0.032,0.0283,0.0295,0.028,0.0315,0.0367,0.0404,0.0497,0.064,0.0726,0.0737,0.0782,0.0588,0.0357,0.0161,-0.0008,0.0051,-0.0017,-0.0124,-0.0266,-0.0336,-0.0398,0.0053,0.0054,0.0055,0.0056,0,0.0392,0.0373,0.0365,0.0386,0.0413,0.0464,0.0536,0.0617,0.0713,0.0827,0.0976,0.1025,0.0888,0.0747,0.0474,0.0299,-0.0029,0.0066,-0.0065,-0.0166,-0.0225,-0.0318,0.0018,0.0066,0.0065,0.0064,0.0064,0.0063,0.0447,0.0461,0.0452,0.048,0.053,0.0626,0.0682,0.0792,0.0934,0.1113,0.1153,0.1253,0.1082,0.0735,0.0489,0.0098,0.0019,-0.0033,-0.0156,-0.0214,-0.029,0.0078,0.0099,0.0098,0.0097,0.0097,0.0096,0,0.0483,0.0504,0.0553,0.0586,0.0669,0.0676,0.081,0.0879,0.104,0.1219,0.1341,0.1384,0.1126,0.0799,0.0319,-0.0025,-0.0188,-0.0235,-0.0322,-0.0378,-0.0045,-0.0043,-0.0026,-0.0026,-0.0026,-0.0026,-0.0026,-0.0025,0.0494,0.0536,0.056,0.0688,0.0742,0.0836,0.0905,0.1017,0.1145,0.1352,0.1465,0.1563,0.143,0.0584,-0.0033,-0.0231,-0.0516,-0.0577,-0.0748,-0.0519,-0.051,-0.05,-0.052,-0.0604,-0.0605,-0.0989,-0.0993,-0.0996]}],[{"header":{"parameterUnit":"m.s-1","parameterCategory":2,"la1":30.2991,"la2":30.254,"lo1":-89.0895,"lo2":-89.0444,"dy":0.0017,"dx":0.0017,"nx":28,"ny":28,"refTime":"2025-07-03T09:00:00:Z","depth":"2","parameterNumber":2,"parameterNumberName":"U-component_of_CURRENTS"},"data":[0,0,0,0,0,0,0,0,0,0,0,0,0,0,0,0,0,0,0,0,0,0,0,0,0,0,0,0,0,0,0,0,0,0,0,0,0,0,0,0,0,0,0,0,0,0,0,0,0,0,0,0,0,0,0,0,0,0,0.1077,0.1077,0,0.1094,0.1094,0.1094,0.1053,0.1051,0.105,0.1049,0.1025,0.1025,0.1026,0,0,0,0,0,0,0,0,0,0,0,0,0,0.1048,0.1048,0.1077,0.1077,0.1078,0.1094,0.1094,0.1094,0.1053,0.1051,0.105,0.1048,0.1024,0.1025,0.1026,0,0,0,0,0,0,0,0,0,0,0,0,0,0.1062,0.1048,0.1077,0.1059,0.1058,0.1094,0.1094,0.1094,0.1053,0.1051,0.1049,0.1048,0.1024,0.1025,0.1026,0.107,0,0,0.1028,0.1029,0,0,0,0,0,0,0,0,0.1061,0.1063,0.1061,0.106,0.1059,0.1069,0.1075,0.1084,0.1054,0.1055,0.1049,0.1047,0.1037,0.1037,0.1045,0.1069,0.1068,0.1029,0.1029,0.1029,0.103,0,0,0,0,0,0,0,0.106,0.1062,0.1084,0.1062,0.106,0.1063,0.1063,0.1077,0.1056,0.1055,0.1052,0.1054,0.1036,0.1044,0.1044,0.1067,0.1029,0.1029,0.103,0.103,0.1163,0.1165,0,0,0,0,0,0,0.1059,0.1061,0.1083,0.1084,0.1055,0.1065,0.1064,0.1068,0.1057,0.1053,0.1056,0.1052,0.1044,0.1043,0.1043,0.1086,0.1029,0.103,0.1031,0.116,0.1163,0.1166,0,0,0,0,0,0,0.1058,0.106,0.1082,0.1073,0.1076,0.1067,0.1072,0.1069,0.1068,0.1058,0.1053,0.1056,0.1042,0.1042,0.1078,0.1084,0.1031,0.1031,0.1156,0.1161,0.1165,0.1177,0,0,0,0,0,0,0.1057,0.106,0.1062,0.1073,0.1076,0.1101,0.1073,0.1071,0.1073,0.1068,0.1057,0.1053,0.1041,0.1077,0.1079,0.1085,0.1032,0.1152,0.1158,0.1163,0.1173,0.1181,0.1189,0,0,0,0,0,0.1056,0.1065,0.1062,0.1065,0.1079,0.1101,0.1104,0.1091,0.1075,0.1081,0.1093,0.1053,0.1113,0.1081,0.1082,0.1088,0.1149,0.1156,0.1163,0.1169,0.118,0.1188,0,0,0,0,0,0,0.1049,0.1063,0.1059,0.107,0.1084,0.1094,0.1098,0.1096,0.1111,0.11,0.1092,0.1091,0.1129,0.1126,0.1089,0.1152,0.1125,0.1132,0.113,0.1139,0.1147,0.1117,0.1033,0,0,0,0,0,0.1053,0.1063,0.1077,0.1086,0.1092,0.1097,0.1104,0.1097,0.1111,0.1114,0.1112,0.1127,0.1164,0.1162,0.119,0.1218,0.123,0.1229,0.1237,0.1243,0.1226,0.1282,0.1291,0.1189,0.1189,0.1189,0,0,0.1048,0.1061,0.1063,0.1086,0.1091,0.1107,0.1095,0.1103,0.1115,0.1112,0.1129,0.1157,0.1186,0.1224,0.1238,0.1211,0.1287,0.1252,0.1256,0.1235,0.1289,0.1299,0.1307,0.1193,0.1192,0.1192,0,0,0.1053,0.1061,0.107,0.1086,0.11,0.111,0.1113,0.1126,0.1127,0.1159,0.1175,0.1213,0.1242,0.1269,0.1288,0.1362,0.134,0.1371,0.1362,0.1417,0.1424,0.1431,0.1479,0.1489,0.1358,0.1358,0.1358,0,0.1043,0.1063,0.1077,0.1095,0.1106,0.1112,0.1125,0.114,0.1163,0.1178,0.1162,0.125,0.1263,0.133,0.1349,0.1372,0.1398,0.1312,0.1422,0.1428,0.1435,0.1482,0.1494,0.1359,0.1359,0.1359,0.1359,0,0.1058,0.1074,0.1082,0.1106,0.1124,0.1137,0.1159,0.1173,0.1176,0.1192,0.125,0.1289,0.1333,0.1355,0.1363,0.1427,0.1431,0.1434,0.1381,0.1445,0.1493,0.1504,0.1361,0.1361,0.1361,0.136,0,0,0.103,0.108,0.1082,0.1097,0.1129,0.1145,0.1172,0.1206,0.1229,0.1248,0.1289,0.1348,0.1359,0.1384,0.1414,0.1445,0.1518,0.1443,0.1446,0.1463,0.1636,0.1668,0.1684,0.1533,0.1535,0.1536,0.1657,0,0.1032,0.1065,0.1093,0.1123,0.114,0.1165,0.1196,0.1226,0.1253,0.1297,0.1336,0.1393,0.1376,0.1407,0.1436,0.1512,0.1546,0.1484,0.1596,0.16,0.1596,0.1698,0.1393,0.1478,0.1668,0.167,0.1671,0,0.1035,0.1059,0.1087,0.1137,0.1146,0.1166,0.1215,0.1246,0.1309,0.1334,0.1379,0.1418,0.1485,0.1461,0.1573,0.1533,0.1575,0.1617,0.1623,0.1647,0.1653,0.1446,0.1491,0.1691,0.1689,0.1688,0.1686,0,0.1012,0.1057,0.1079,0.1094,0.1148,0.1164,0.1192,0.125,0.1301,0.1365,0.1418,0.1476,0.1546,0.1587,0.1669,0.1623,0.1799,0.1754,0.1822,0.1824,0.1583,0.1563,0.1827,0.1827,0.1827,0.1827,0.1826,0,0.101,0.1029,0.1067,0.1081,0.1117,0.1149,0.1203,0.124,0.1322,0.1404,0.1437,0.1527,0.1581,0.1687,0.1709,0.1825,0.1839,0.1839,0.1867,0.1587,0.1566,0.1754,0.1743,0.1831,0.183,0.1829,0.1828,0,0.0992,0.1017,0.1049,0.1094,0.1111,0.1135,0.1224,0.1276,0.1341,0.1455,0.1487,0.1605,0.1742,0.1817,0.193,0.1916,0.1998,0.2033,0.1708,0.1696,0.1963,0.1952,0.2093,0.2095,0.2097,0.2099,0.21,0,0.0987,0.0998,0.1055,0.1087,0.1111,0.1157,0.1206,0.1277,0.1349,0.1512,0.158,0.1745,0.1849,0.2034,0.201,0.2068,0.2133,0.1866,0.1723,0.1982,0.1995,0.1981,0.1968,0.1405,0.1401,0.1397,0.1394,0,0.0968,0.0988,0.1014,0.1084,0.1133,0.1203,0.1276,0.1332,0.1436,0.1537,0.1687,0.1775,0.1913,0.1845,0.1937,0.1913,0.182,0.1801,0.2159,0.1413,0.1351,0.1359,0.1364,0.1362,0.1365,0.1368,0.137,0.1371,0.0941,0.0963,0.1,0.107,0.1142,0.1222,0.1257,0.1351,0.1447,0.155,0.1672,0.1711,0.1636,0.164,0.1641,0.163,0.1736,0.1593,0.1595,0.1603,0.153,0.1478,0.1498,0.1502,0.1505,0.1508,0.1511,0,0.09,0.0937,0.0993,0.1059,0.1124,0.119,0.129,0.1303,0.1383,0.1471,0.1551,0.1316,0.1277,0.1315,0.121,0.1222,0.1115,0.1207,0.0997,0.1026,0.1053,0.0945,0.0763,0.0762,0.0762,0.0761,0,0,0.087,0.0893,0.093,0.1001,0.1076,0.1136,0.1183,0.1215,0.1249,0.1217,0.1189,0.1213,0.1209,0.0957,0.0893,0.0853,0.0952,0.0812,0.1379,0.1156,0.1184,0.1211,0.1072,0,0,0,0,0]},{"header":{"parameterUnit":"m.s-1","parameterCategory":2,"la1":30.2991,"la2":30.254,"lo1":-89.0895,"lo2":-89.0444,"dy":0.0017,"dx":0.0017,"nx":28,"ny":28,"refTime":"2025-07-03T09:00:00:Z","depth":"2","parameterNumber":3,"parameterNumberName":"V-component_of_CURRENTS"},"data":[0,0,0,0,0,0,0,0,0,0,0,0,0,0,0,0,0,0,0,0,0,0,0,0,0,0,0,0,0,0,0,0,0,0,0,0,0,0,0,0,0,0,0,0,0,0,0,0,0,0,0,0,0,0,0,0,0,0,0.009,0.0089,0,0.0019,0.0018,0.0017,-0.0042,-0.0042,-0.0043,-0.0043,-0.0142,-0.0144,-0.0146,0,0,0,0,0,0,0,0,0,0,0,0,0,0.016,0.0159,0.009,0.0089,0.0088,0.0019,0.0018,0.0017,-0.0042,-0.0042,-0.0043,-0.0044,-0.0141,-0.0144,-0.0146,0,0,0,0,0,0,0,0,0,0,0,0,0,0.0114,0.0159,0.009,0.0051,0.0046,0.0019,0.0018,0.0017,-0.0041,-0.0042,-0.0043,-0.0044,-0.0141,-0.0144,-0.0147,-0.0146,0,0,-0.0156,-0.0157,0,0,0,0,0,0,0,0,0.0116,0.0111,0.0057,0.0053,0.0049,-0.0004,0.0007,-0.0039,-0.0041,-0.0008,-0.0043,-0.0045,-0.0098,-0.0104,-0.0115,-0.0151,-0.0155,-0.0156,-0.0158,-0.0159,-0.016,0,0,0,0,0,0,0,0.012,0.0114,0.0062,0.0057,0.0051,0.0031,0.0024,-0.0002,-0.0047,-0.0011,-0.0015,-0.0023,-0.01,-0.0112,-0.0118,-0.0157,-0.0156,-0.0159,-0.0161,-0.0162,-0.0214,-0.0213,0,0,0,0,0,0,0.013,0.0117,0.0064,0.006,0.0081,0.0031,0.0022,0.0014,-0.0046,-0.0056,-0.0022,-0.0026,-0.0106,-0.0114,-0.0122,-0.0128,-0.0159,-0.0162,-0.0164,-0.0214,-0.0214,-0.0213,0,0,0,0,0,0,0.0132,0.0126,0.0067,0.0087,0.0078,0.0031,0.0022,0.0013,-0.0005,-0.0055,-0.0065,-0.0032,-0.0107,-0.0117,-0.0142,-0.0133,-0.0164,-0.0166,-0.0215,-0.0214,-0.0213,-0.014,0,0,0,0,0,0,0.0134,0.0127,0.0127,0.0088,0.0077,0.0055,0.0023,0.0013,-0.0008,-0.0013,-0.0066,-0.0076,-0.0109,-0.0137,-0.0145,-0.0137,-0.0169,-0.0215,-0.0214,-0.0214,-0.0143,-0.0137,-0.0132,0,0,0,0,0,0.0137,0.014,0.0127,0.0121,0.0077,0.0056,0.0049,0.0012,-0.0007,-0.0009,-0.0044,-0.0075,-0.0138,-0.0139,-0.0149,-0.0142,-0.0216,-0.0215,-0.0214,-0.0146,-0.0138,-0.0132,0,0,0,0,0,0,0.0172,0.0133,0.0118,0.011,0.0088,0.0046,0.004,0.0016,-0.0013,-0.0021,-0.0069,-0.008,-0.0098,-0.0129,-0.013,-0.0154,-0.0182,-0.0183,-0.0127,-0.0121,-0.0115,-0.0108,-0.0171,0,0,0,0,0,0.0181,0.0171,0.0135,0.0131,0.012,0.0082,0.0068,0.0044,0.0012,-0.0003,-0.0037,-0.0074,-0.01,-0.0117,-0.0145,-0.0158,-0.0196,-0.016,-0.0154,-0.0149,-0.0151,-0.0195,-0.0193,-0.021,-0.021,-0.021,0,0,0.0194,0.0172,0.0166,0.0138,0.0116,0.0107,0.0071,0.0053,0.0047,-0.0008,-0.0024,-0.0055,-0.0098,-0.0112,-0.0123,-0.0138,-0.0164,-0.0148,-0.0143,-0.0148,-0.0194,-0.0192,-0.0191,-0.0209,-0.0209,-0.0209,0,0,0.0215,0.0196,0.0193,0.0177,0.0147,0.0126,0.0124,0.0086,0.0069,0.0053,0.0014,-0.0008,-0.0051,-0.0075,-0.0095,-0.0075,-0.0131,-0.0087,-0.0055,-0.0097,-0.0096,-0.0096,-0.0136,-0.014,-0.0085,-0.0085,-0.0085,0,0.0231,0.022,0.0191,0.0186,0.0174,0.0139,0.0135,0.0121,0.0081,0.007,0.0055,-0.0002,-0.0032,-0.0053,-0.0044,-0.0061,-0.0099,-0.0074,-0.0089,-0.009,-0.0091,-0.0132,-0.0138,-0.0081,-0.0082,-0.0082,-0.0082,0,0.0244,0.0237,0.0237,0.0217,0.0206,0.0198,0.0173,0.0163,0.0141,0.012,0.0097,0.006,0.0022,0.0015,-0.0008,-0.0026,-0.0054,-0.0075,-0.0104,-0.0085,-0.013,-0.0137,-0.0076,-0.0077,-0.0078,-0.0079,0,0,0.026,0.0248,0.0245,0.0239,0.0218,0.0206,0.0209,0.0191,0.0184,0.0158,0.0144,0.0116,0.009,0.0067,0.0036,0.0006,-0.0022,-0.0032,-0.0036,-0.0068,-0.0121,-0.0115,-0.0122,-0.005,-0.0051,-0.0051,-0.0147,0,0.0273,0.0275,0.0264,0.0264,0.0258,0.0236,0.0239,0.0222,0.0205,0.0188,0.0155,0.0134,0.0111,0.0096,0.0064,-0.0003,-0.0038,0.0006,-0.014,-0.0144,-0.0137,-0.0129,-0.0116,-0.0199,-0.0155,-0.0156,-0.0157,0,0.0272,0.0275,0.0281,0.0275,0.027,0.027,0.0256,0.0255,0.0235,0.0223,0.0201,0.0169,0.0134,0.011,0.0007,0.0032,-0.0038,-0.0089,-0.0095,-0.0121,-0.015,-0.0214,-0.0214,-0.0169,-0.0168,-0.0167,-0.0166,0,0.0268,0.0276,0.0281,0.0278,0.0275,0.0273,0.0273,0.0261,0.0267,0.0246,0.0247,0.019,0.0166,0.0076,-0.0016,-0.0014,-0.0138,-0.0154,-0.0216,-0.0217,-0.025,-0.0252,-0.0235,-0.0234,-0.0234,-0.0234,-0.0234,0,0.0261,0.0258,0.0281,0.0276,0.0283,0.028,0.0285,0.0279,0.0287,0.0298,0.0266,0.0264,0.0156,0.008,-0.0016,-0.0131,-0.0143,-0.0211,-0.024,-0.0223,-0.0221,-0.0232,-0.023,-0.0238,-0.0237,-0.0236,-0.0235,0,0.0225,0.0245,0.0246,0.0265,0.0274,0.0272,0.03,0.0312,0.0322,0.0337,0.0338,0.0308,0.0224,0.0109,-0.0039,-0.0123,-0.0241,-0.0283,-0.0249,-0.0271,-0.0294,-0.0288,-0.0364,-0.0365,-0.0365,-0.0366,-0.0366,0,0.0195,0.0198,0.0232,0.0247,0.0252,0.0268,0.0289,0.0318,0.0346,0.0368,0.0381,0.0325,0.0312,0.0112,-0.005,-0.0217,-0.0249,-0.0336,-0.0323,-0.0287,-0.0308,-0.03,-0.0294,-0.0346,-0.0346,-0.0346,-0.0346,0,0.0142,0.0162,0.0171,0.0215,0.0243,0.0279,0.0318,0.0352,0.0394,0.0441,0.0474,0.0474,0.0316,0.016,-0.0058,-0.0166,-0.0304,-0.0343,-0.0334,-0.0299,-0.0273,-0.0292,-0.0286,-0.0347,-0.0347,-0.0347,-0.0347,-0.0347,0.0105,0.0107,0.0148,0.0191,0.0225,0.029,0.0347,0.0414,0.0491,0.0611,0.0571,0.0583,0.0329,0.0088,-0.0096,-0.0277,-0.0274,-0.0374,-0.0373,-0.0371,-0.0336,-0.031,-0.0386,-0.0386,-0.0386,-0.0386,-0.0386,0,0.0107,0.0121,0.0133,0.0196,0.0249,0.0285,0.0378,0.0482,0.0612,0.0683,0.0771,0.0506,0.0353,0.0101,-0.0159,-0.0329,-0.0321,-0.0389,-0.037,-0.0368,-0.0367,-0.033,-0.038,-0.038,-0.038,-0.038,0,0,0.0115,0.0137,0.0155,0.023,0.0281,0.0406,0.0488,0.0639,0.0721,0.0786,0.0771,0.0773,0.0378,0.0154,-0.0085,-0.0217,-0.0229,-0.0226,-0.0216,-0.0162,-0.0157,-0.0352,-0.0293,0,0,0,0,0]}],[{"header":{"parameterUnit":"m.s-1","parameterCategory":2,"la1":30.2991,"la2":30.254,"lo1":-89.0895,"lo2":-89.0444,"dy":0.0017,"dx":0.0017,"nx":28,"ny":28,"refTime":"2025-07-03T09:00:00:Z","depth":"4","parameterNumber":2,"parameterNumberName":"U-component_of_CURRENTS"},"data":[0,0,0,0,0,0,0,0,0,0,0,0,0,0,0,0,0,0,0,0,0,0,0,0,0,0,0,0,0,0,0,0,0,0,0,0,0,0,0,0,0,0,0,0,0,0,0,0,0,0,0,0,0,0,0,0,0,0,0.0292,0.0292,0,0.0303,0.0303,0.0303,0.0322,0.0323,0.0323,0.0324,0.0318,0.0318,0.0317,0,0,0,0,0,0,0,0,0,0,0,0,0,0.0237,0.0238,0.0292,0.0292,0.0293,0.0303,0.0303,0.0303,0.0322,0.0323,0.0323,0.0324,0.0319,0.0318,0.0317,0,0,0,0,0,0,0,0,0,0,0,0,0,0.0254,0.0238,0.0292,0.0305,0.0307,0.0303,0.0303,0.0303,0.0322,0.0323,0.0324,0.0324,0.0319,0.0318,0.0317,0.0294,0,0,0.0314,0.0313,0,0,0,0,0,0,0,0,0.0253,0.0255,0.0303,0.0304,0.0306,0.0314,0.0282,0.03,0.0322,0.0314,0.0324,0.0325,0.0316,0.0315,0.0313,0.0293,0.0293,0.0314,0.0313,0.0313,0.0312,0,0,0,0,0,0,0,0.0251,0.0255,0.0294,0.0303,0.0305,0.0293,0.0297,0.0285,0.0308,0.0314,0.0316,0.0321,0.0317,0.0314,0.0313,0.0293,0.0314,0.0313,0.0312,0.0312,0.0274,0.0273,0,0,0,0,0,0,0.0257,0.0254,0.0294,0.0295,0.0283,0.0294,0.0298,0.0309,0.0308,0.031,0.032,0.0322,0.0315,0.0314,0.0313,0.0316,0.0313,0.0312,0.0311,0.0274,0.0274,0.0273,0,0,0,0,0,0,0.0255,0.026,0.0293,0.0276,0.028,0.0295,0.0306,0.0309,0.0318,0.0314,0.0315,0.033,0.0316,0.0314,0.0306,0.0314,0.0311,0.031,0.0275,0.0274,0.0274,0.0302,0,0,0,0,0,0,0.0254,0.026,0.0266,0.0276,0.0281,0.0298,0.0306,0.0308,0.032,0.0323,0.0322,0.0321,0.0316,0.0307,0.0305,0.0313,0.0309,0.0275,0.0274,0.0274,0.0301,0.0302,0.0303,0,0,0,0,0,0.0252,0.0254,0.0266,0.0271,0.029,0.0298,0.0299,0.031,0.032,0.0322,0.0319,0.0322,0.0301,0.0306,0.0303,0.0311,0.0276,0.0275,0.0274,0.0301,0.0302,0.0303,0,0,0,0,0,0,0.0225,0.0257,0.027,0.0281,0.0294,0.0302,0.0304,0.0315,0.0314,0.0317,0.0314,0.0313,0.0307,0.03,0.0306,0.0296,0.0289,0.0288,0.0311,0.0312,0.0313,0.0332,0.0309,0,0,0,0,0,0.0225,0.024,0.0264,0.0271,0.028,0.0295,0.0299,0.031,0.0313,0.0315,0.0316,0.0309,0.0298,0.0299,0.0285,0.0281,0.028,0.0283,0.0284,0.0285,0.0297,0.0292,0.0294,0.027,0.027,0.027,0,0,0.0213,0.0235,0.0241,0.0267,0.0277,0.0289,0.0299,0.0309,0.0317,0.0312,0.0318,0.0309,0.0294,0.0288,0.0286,0.0288,0.0291,0.0284,0.0285,0.0297,0.0292,0.0294,0.0297,0.027,0.027,0.027,0,0,0.0201,0.0221,0.0234,0.025,0.0275,0.0283,0.0291,0.0309,0.0316,0.032,0.0314,0.0312,0.0303,0.0294,0.0288,0.0282,0.0289,0.0281,0.0311,0.0306,0.0308,0.0311,0.0315,0.0317,0.0289,0.0289,0.0289,0,0.0187,0.0212,0.0234,0.0253,0.0267,0.0285,0.0299,0.0303,0.0315,0.0322,0.0326,0.0316,0.0305,0.0297,0.0302,0.0286,0.0292,0.0311,0.0309,0.0311,0.0313,0.0317,0.0319,0.0291,0.0291,0.029,0.029,0,0.0189,0.0212,0.0218,0.0255,0.0267,0.028,0.0299,0.0309,0.0323,0.0333,0.0336,0.0323,0.0328,0.0317,0.0314,0.032,0.0323,0.0306,0.0312,0.0318,0.032,0.0322,0.0292,0.0292,0.0292,0.0291,0,0,0.0152,0.0212,0.0214,0.0239,0.0274,0.0284,0.0297,0.0317,0.0334,0.0341,0.0359,0.0345,0.036,0.0354,0.0346,0.0345,0.0362,0.0346,0.0345,0.0361,0.0368,0.0363,0.0364,0.0354,0.0354,0.0354,0.0367,0,0.0149,0.019,0.0218,0.0246,0.0269,0.0295,0.0309,0.0327,0.0345,0.0363,0.0358,0.0371,0.0367,0.0382,0.038,0.0364,0.0369,0.0361,0.0352,0.0352,0.0355,0.0367,0.0356,0.0368,0.0368,0.0369,0.0369,0,0.0141,0.0175,0.0208,0.0262,0.0274,0.0293,0.0329,0.0346,0.0371,0.0389,0.0409,0.0415,0.0425,0.0416,0.041,0.0412,0.0404,0.0386,0.0386,0.0375,0.035,0.0359,0.0372,0.0372,0.0372,0.0372,0.0371,0,0.0106,0.0164,0.0194,0.0212,0.027,0.0292,0.0322,0.0356,0.0375,0.0417,0.0441,0.0452,0.0467,0.0455,0.0442,0.0437,0.0425,0.0405,0.0389,0.0388,0.0378,0.0375,0.0402,0.0402,0.0402,0.0402,0.0402,0,0.0089,0.0113,0.0187,0.0202,0.024,0.0288,0.0324,0.0357,0.0401,0.0425,0.0464,0.0467,0.0482,0.0478,0.0456,0.0437,0.0441,0.0404,0.0393,0.0388,0.0387,0.0379,0.0377,0.0402,0.0402,0.0402,0.0402,0,0.0043,0.009,0.0126,0.0197,0.0224,0.025,0.0328,0.0351,0.0409,0.0442,0.0464,0.0491,0.0487,0.0488,0.0465,0.046,0.0431,0.042,0.043,0.0417,0.0395,0.0394,0.0411,0.0411,0.0411,0.0411,0.0411,0,0.003,0.0044,0.0112,0.0138,0.0175,0.0232,0.0266,0.034,0.0369,0.0434,0.0436,0.0464,0.0475,0.0442,0.0436,0.0422,0.0409,0.0428,0.0405,0.041,0.0397,0.0396,0.0394,0.0411,0.0411,0.0411,0.0411,0,-0.0001,0.0017,0.0045,0.0102,0.0144,0.0189,0.0253,0.0271,0.0352,0.0404,0.0421,0.0436,0.0429,0.0413,0.0428,0.0398,0.0436,0.0427,0.0427,0.0406,0.041,0.0397,0.0396,0.0411,0.0411,0.0411,0.0411,0,-0.003,-0.0021,0.0021,0.007,0.0116,0.0153,0.0184,0.0239,0.028,0.0372,0.0355,0.0376,0.0404,0.0397,0.038,0.0391,0.038,0.0395,0.0396,0.0396,0.0387,0.0391,0.0385,0,0,0,0,0,-0.0051,-0.0033,0.0002,0.0058,0.0098,0.0135,0.0184,0.0215,0.0287,0.0299,0.0345,0.0336,0.0352,0.0338,0.0342,0.0352,0.0368,0.0359,0.0382,0.041,0.041,0.0401,0,0,0,0,0,0,-0.0062,-0.004,-0.0009,0.0045,0.0083,0.013,0.0155,0.0195,0.0209,0.0277,0.0263,0.0344,0.0325,0.0344,0.034,0.0346,0.0364,0.0381,0.0382,0.041,0.041,0.041,0.0401,0,0,0,0,0]},{"header":{"parameterUnit":"m.s-1","parameterCategory":2,"la1":30.2991,"la2":30.254,"lo1":-89.0895,"lo2":-89.0444,"dy":0.0017,"dx":0.0017,"nx":28,"ny":28,"refTime":"2025-07-03T09:00:00:Z","depth":"4","parameterNumber":3,"parameterNumberName":"V-component_of_CURRENTS"},"data":[0,0,0,0,0,0,0,0,0,0,0,0,0,0,0,0,0,0,0,0,0,0,0,0,0,0,0,0,0,0,0,0,0,0,0,0,0,0,0,0,0,0,0,0,0,0,0,0,0,0,0,0,0,0,0,0,0,0,-0.0174,-0.0174,0,-0.0204,-0.0204,-0.0204,-0.0202,-0.0202,-0.0201,-0.0201,-0.0231,-0.0233,-0.0234,0,0,0,0,0,0,0,0,0,0,0,0,0,-0.011,-0.0112,-0.0174,-0.0174,-0.0174,-0.0204,-0.0204,-0.0205,-0.0202,-0.0202,-0.0201,-0.0201,-0.0231,-0.0233,-0.0234,0,0,0,0,0,0,0,0,0,0,0,0,0,-0.0139,-0.0112,-0.0173,-0.0177,-0.0177,-0.0204,-0.0204,-0.0205,-0.0202,-0.0202,-0.0201,-0.02,-0.0231,-0.0232,-0.0234,-0.0259,0,0,-0.024,-0.0241,0,0,0,0,0,0,0,0,-0.0137,-0.0141,-0.0176,-0.0177,-0.0177,-0.0199,-0.0193,-0.0223,-0.0202,-0.0193,-0.0201,-0.02,-0.0221,-0.0224,-0.0231,-0.026,-0.0262,-0.024,-0.0241,-0.0242,-0.0242,0,0,0,0,0,0,0,-0.0135,-0.014,-0.0185,-0.0176,-0.0177,-0.0176,-0.0179,-0.0199,-0.021,-0.0193,-0.0193,-0.0197,-0.0221,-0.0229,-0.0231,-0.0262,-0.024,-0.0242,-0.0243,-0.0243,-0.0335,-0.0336,0,0,0,0,0,0,-0.0133,-0.0138,-0.0184,-0.0186,-0.0155,-0.0177,-0.0181,-0.0192,-0.021,-0.0212,-0.0198,-0.0197,-0.0226,-0.0229,-0.0232,-0.0269,-0.0242,-0.0244,-0.0245,-0.0334,-0.0335,-0.0337,0,0,0,0,0,0,-0.0132,-0.0137,-0.0183,-0.0162,-0.0168,-0.0179,-0.0192,-0.0193,-0.0213,-0.0213,-0.0215,-0.0217,-0.0226,-0.023,-0.0261,-0.0269,-0.0244,-0.0246,-0.0332,-0.0334,-0.0336,-0.0337,0,0,0,0,0,0,-0.013,-0.0137,-0.0156,-0.0163,-0.0169,-0.0204,-0.0193,-0.0194,-0.0215,-0.0215,-0.023,-0.0232,-0.0225,-0.0259,-0.0263,-0.0272,-0.0248,-0.033,-0.0333,-0.0335,-0.0336,-0.0339,-0.0342,0,0,0,0,0,-0.0128,-0.0146,-0.0157,-0.0163,-0.0191,-0.0205,-0.0209,-0.0214,-0.0217,-0.0229,-0.0241,-0.0232,-0.0277,-0.0261,-0.0266,-0.0275,-0.0329,-0.0332,-0.0335,-0.0334,-0.0338,-0.0342,0,0,0,0,0,0,-0.0133,-0.0148,-0.0159,-0.0184,-0.0199,-0.0205,-0.0222,-0.0227,-0.0247,-0.0253,-0.0251,-0.0254,-0.0284,-0.0289,-0.0272,-0.0312,-0.0301,-0.0305,-0.0299,-0.0303,-0.0306,-0.0294,-0.0249,0,0,0,0,0,-0.0144,-0.0161,-0.0175,-0.02,-0.0209,-0.0222,-0.0234,-0.0238,-0.0251,-0.026,-0.0271,-0.0286,-0.0301,-0.0309,-0.0325,-0.0351,-0.0342,-0.0362,-0.0365,-0.0367,-0.0363,-0.0359,-0.036,-0.0346,-0.0346,-0.0346,0,0,-0.0155,-0.0166,-0.0178,-0.0202,-0.0218,-0.0225,-0.0228,-0.025,-0.0255,-0.0262,-0.0285,-0.0303,-0.0313,-0.0335,-0.0349,-0.0339,-0.037,-0.0371,-0.0373,-0.0367,-0.0362,-0.0363,-0.0364,-0.0348,-0.0348,-0.0348,0,0,-0.0165,-0.0197,-0.0205,-0.0218,-0.024,-0.0245,-0.0255,-0.0273,-0.0283,-0.031,-0.0313,-0.0339,-0.0365,-0.0367,-0.0371,-0.0409,-0.0391,-0.0419,-0.0419,-0.0415,-0.0415,-0.0415,-0.0408,-0.0408,-0.0415,-0.0415,-0.0415,0,-0.0179,-0.019,-0.0212,-0.0218,-0.0229,-0.0254,-0.026,-0.0274,-0.03,-0.0311,-0.0318,-0.0364,-0.0375,-0.0391,-0.0399,-0.0413,-0.0406,-0.0397,-0.0416,-0.0416,-0.0416,-0.0409,-0.0408,-0.0416,-0.0416,-0.0416,-0.0416,0,-0.0182,-0.0198,-0.0207,-0.022,-0.0237,-0.0252,-0.0268,-0.029,-0.031,-0.0322,-0.0359,-0.0381,-0.04,-0.0414,-0.0415,-0.0427,-0.0422,-0.0421,-0.0397,-0.0417,-0.0409,-0.0408,-0.0416,-0.0416,-0.0416,-0.0416,0,0,-0.0197,-0.0204,-0.0211,-0.0213,-0.024,-0.0251,-0.0269,-0.0288,-0.0299,-0.0337,-0.0351,-0.0387,-0.0405,-0.0413,-0.0426,-0.0427,-0.0425,-0.0423,-0.0422,-0.0401,-0.0412,-0.0408,-0.0407,-0.0422,-0.0422,-0.0422,-0.0406,0,-0.0195,-0.0194,-0.0204,-0.0214,-0.0216,-0.0243,-0.0254,-0.0279,-0.0304,-0.0327,-0.0361,-0.038,-0.0401,-0.0409,-0.0419,-0.0425,-0.0423,-0.0429,-0.041,-0.0409,-0.039,-0.0406,-0.0422,-0.0405,-0.0405,-0.0405,-0.0405,0,-0.0194,-0.0191,-0.0193,-0.02,-0.0207,-0.0217,-0.0245,-0.0256,-0.029,-0.0308,-0.0341,-0.0365,-0.0386,-0.0396,-0.0411,-0.0413,-0.0411,-0.0416,-0.0415,-0.0408,-0.0404,-0.0384,-0.0403,-0.0403,-0.0404,-0.0404,-0.0404,0,-0.0181,-0.0187,-0.0186,-0.0192,-0.0203,-0.0214,-0.0224,-0.0256,-0.0259,-0.0291,-0.0297,-0.0339,-0.0345,-0.0363,-0.0385,-0.0389,-0.0396,-0.0399,-0.0395,-0.0395,-0.0399,-0.0399,-0.0398,-0.0398,-0.0398,-0.0398,-0.0398,0,-0.0169,-0.017,-0.0181,-0.018,-0.0183,-0.0201,-0.0208,-0.0223,-0.0239,-0.024,-0.0282,-0.029,-0.0334,-0.0351,-0.0374,-0.0386,-0.0384,-0.0395,-0.0391,-0.0403,-0.0403,-0.0398,-0.0399,-0.0398,-0.0398,-0.0398,-0.0398,0,-0.0146,-0.0157,-0.0153,-0.0167,-0.0173,-0.0176,-0.0182,-0.0183,-0.0198,-0.0197,-0.0199,-0.024,-0.0264,-0.0309,-0.0334,-0.0357,-0.0375,-0.0375,-0.0384,-0.0381,-0.0378,-0.0379,-0.0367,-0.0367,-0.0366,-0.0366,-0.0366,0,-0.0121,-0.0119,-0.014,-0.0139,-0.0145,-0.0148,-0.0148,-0.0161,-0.0158,-0.0167,-0.0165,-0.0188,-0.022,-0.0256,-0.0309,-0.0351,-0.0357,-0.0362,-0.0377,-0.0378,-0.0375,-0.0376,-0.0377,-0.0366,-0.0366,-0.0366,-0.0366,0,-0.0069,-0.0093,-0.0092,-0.0098,-0.0104,-0.0104,-0.0105,-0.0098,-0.0109,-0.0114,-0.0122,-0.0156,-0.0186,-0.0244,-0.0275,-0.031,-0.0363,-0.036,-0.0361,-0.0375,-0.0376,-0.0374,-0.0375,-0.0365,-0.0365,-0.0365,-0.0365,0,-0.0034,-0.003,-0.0045,-0.0058,-0.0054,-0.0066,-0.0074,-0.0073,-0.0073,-0.0084,-0.0088,-0.0132,-0.0162,-0.0221,-0.0256,-0.0289,-0.0298,-0.0305,-0.0309,-0.031,-0.0309,-0.0303,-0.0263,0,0,0,0,0,-0.0004,-0.0012,-0.0002,-0.0024,-0.002,-0.0036,-0.0044,-0.0055,-0.0066,-0.0059,-0.0071,-0.01,-0.0157,-0.0196,-0.0224,-0.026,-0.0311,-0.0296,-0.0323,-0.0361,-0.0361,-0.037,0,0,0,0,0,0,0.0011,0.0019,0.0006,0.0007,-0.0004,-0.0009,-0.0023,-0.0038,-0.0041,-0.0051,-0.0084,-0.0098,-0.0161,-0.0132,-0.022,-0.0233,-0.0253,-0.0326,-0.0326,-0.036,-0.0361,-0.0362,-0.0371,0,0,0,0,0]}]]